Weather History for Ashtabula, OH

Change the Weather History Date:

Monday, October 1, 2012

  Actual Average (KYNG) Record (KYNG)
Temperature  
Mean Temperature 52 °F 56 °F  
Max Temperature 66 °F 66 °F 85 °F (1952)
Min Temperature 39 °F 46 °F 30 °F (1947)
Degree Days  
Heating Degree Days 14 10  
Month to date heating degree days 10  
Since 1 July heating degree days 193  
Cooling Degree Days 0 1  
Month to date cooling degree days 1  
Year to date cooling degree days 539  
Growing Degree Days 2 (Base 50)    
Moisture  
Dew Point 44 °F    
Average Humidity 79    
Maximum Humidity 97    
Minimum Humidity 50    
Precipitation  
Precipitation 0.01 in 0.10 in 0.66 in (1977)
Month to date precipitation 0.10  
Year to date precipitation 30.07  
Snow  
Snow 0.00 in 0.00 in - ()
Month to date snowfall 0.0  
Since 1 July snowfall 0.0  
Since 1 September snowfall 0.0  
Snow Depth -    
Sea Level Pressure  
Sea Level Pressure 29.93 in    
Wind  
Wind Speed 1 mph (ENE)    
Max Wind Speed 6 mph    
Max Gust Speed -    
Visibility 9 miles    
Events      
T = Trace of Precipitation, MM = Missing Value Source: NWS Daily Summary

Daily Weather History Graph

Daily Weather History Graph

Search for Another Location

Airport:

Trip Planner

Search our weather history database for the weather conditions in past years. The results will help you decide how hot, cold, wet, or windy it might be!

Date:

Astronomy

Oct. 01, 2012 Rise Set
Actual Time 7:20 AM EDT 7:03 PM EDT
Civil Twilight 6:52 AM EDT 7:31 PM EDT
Nautical Twilight 6:20 AM EDT 8:03 PM EDT
Astronomical Twilight 5:47 AM EDT 8:36 PM EDT
Moon 7:37 PM EDT (10/1) 8:50 AM EDT (10/1)
Length of Visible Light 12h 38m
Length of Day
11h 43m
Full, 98% of the Moon is Illuminated
Oct 1
Full
Oct 8
Last Quarter
Oct 15
New
Oct 21
First Quarter
Oct 29
Full

Hourly Weather History & Observations

Time (EDT) Temp. Dew Point Humidity Pressure Visibility Wind Dir Wind Speed Gust Speed Precip Events Conditions
12:53 AM 44.1 °F 41.0 °F 89% 29.94 in 10.0 mi Calm Calm - N/A   Overcast
1:53 AM 44.1 °F 41.0 °F 89% 29.94 in 10.0 mi Calm Calm - N/A   Clear
2:53 AM 41.0 °F 39.0 °F 93% 29.93 in 7.0 mi Calm Calm - N/A   Clear
3:53 AM 39.9 °F 37.9 °F 93% 29.92 in 7.0 mi Calm Calm - N/A   Clear
4:53 AM 39.9 °F 37.9 °F 93% 29.94 in 10.0 mi Calm Calm - 0.01 in   Clear
5:53 AM 39.9 °F 37.9 °F 93% 29.94 in 10.0 mi Calm Calm - N/A   Clear
6:53 AM 39.0 °F 37.9 °F 96% 29.95 in 6.0 mi Calm Calm - N/A   Clear
7:53 AM 39.9 °F 39.0 °F 97% 29.97 in 8.0 mi Calm Calm - N/A   Clear
8:53 AM 46.0 °F 44.1 °F 93% 29.98 in 10.0 mi Calm Calm - N/A   Clear
9:53 AM 53.1 °F 50.0 °F 89% 29.98 in 10.0 mi Calm Calm - N/A   Clear
11:53 AM 62.1 °F 45.0 °F 53% 29.96 in 10.0 mi Variable 3.5 mph - N/A   Scattered Clouds
12:53 PM 63.0 °F 46.0 °F 54% 29.95 in 10.0 mi WNW 5.8 mph - N/A   Clear
2:53 PM 64.9 °F 46.0 °F 50% 29.92 in 10.0 mi Calm Calm - N/A   Mostly Cloudy
3:53 PM 64.0 °F 46.9 °F 54% 29.91 in 10.0 mi NE 4.6 mph - N/A   Partly Cloudy
5:53 PM 61.0 °F 48.0 °F 62% 29.90 in 10.0 mi ENE 5.8 mph - N/A   Clear
6:53 PM 57.0 °F 46.9 °F 69% 29.91 in 10.0 mi NE 3.5 mph - N/A   Clear
7:53 PM 53.1 °F 46.9 °F 80% 29.91 in 10.0 mi NE 3.5 mph - N/A   Clear
8:53 PM 54.0 °F 46.0 °F 75% 29.91 in 10.0 mi Calm Calm - N/A   Clear
9:53 PM 52.0 °F 46.0 °F 80% 29.89 in 10.0 mi East 4.6 mph - N/A   Clear
10:53 PM 52.0 °F 46.0 °F 80% 29.87 in 10.0 mi East 3.5 mph - N/A   Partly Cloudy
11:53 PM 54.0 °F 46.9 °F 77% 29.85 in 10.0 mi Calm Calm - N/A   Mostly Cloudy